This demonstration page uses our WeatherBlox Daily Observations layout. Learn more.

Hourly Observations for February 27, 2020

Temp ( °F °C ) Dew Point ( °F °C ) Humidity (%) Winds ( mph kmh ) Pressure ( in mb ) Visibility ( mi km ) Precip ( " mm )
12:54 am 00:54 Cloudy 27 -2.8 18 -7.8 69 69 SSE 3 6 30.19 1022 10 16.0934 0 0
1:54 am 01:54 Mostly Cloudy 26 -3.3 17 -8.3 69 69 Calm 30.17 1022 10 16.0934 0 0
2:54 am 02:54 Mostly Cloudy 27 -2.8 18 -7.8 69 69 VRB 6 9 30.15 1021 10 16.0934 0 0
3:54 am 03:54 Cloudy 27 -2.8 19 -7.2 72 72 SSW 5 7 30.12 1020 10 16.0934 0 0
4:54 am 04:54 Mostly Cloudy 28 -2.2 19 -7.2 69 69 SW 5 7 30.11 1020 10 16.0934 0 0
5:54 am 05:54 Cloudy 27 -2.8 20 -6.7 75 75 Calm 30.11 1020 10 16.0934 0 0
6:54 am 06:54 Cloudy 28 -2.2 21 -6.1 75 75 Calm 30.12 1020 10 16.0934 0 0
7:54 am 07:54 Cloudy 29 -1.7 22 -5.6 75 75 Calm 30.14 1021 10 16.0934 0 0
8:54 am 08:54 Cloudy 32 0 23 -5 69 69 W 3 6 30.17 1022 10 16.0934 0 0
9:54 am 09:54 Cloudy 35 1.7 24 -4.4 64 64 NNW 5 7 30.17 1022 10 16.0934 0 0
10:54 am 10:54 Cloudy 37 2.8 22 -5.6 54 54 VRB 3 6 30.17 1022 10 16.0934 0 0
11:54 am 11:54 Mostly Cloudy 40 4.4 22 -5.6 49 49 NW 7 11 30.17 1022 10 16.0934 0 0
12:54 pm 12:54 Cloudy 44 6.7 22 -5.6 41 41 undefined N/A 30.16 1021 10 16.0934 0 0
1:54 pm 13:54 Cloudy 43 6.1 22 -5.6 43 43 N 12 19 30.17 1022 10 16.0934 0 0
2:54 pm 14:54 Mostly Cloudy 43 6.1 21 -6.1 42 42 NW 10 17 30.17 1022 10 16.0934 0 0
3:54 pm 15:54 Mostly Sunny 43 6.1 21 -6.1 42 42 NNW 12 19 30.19 1022 10 16.0934 0 0
4:54 pm 16:54 Mostly Cloudy 42 5.6 21 -6.1 43 43 NW 13 20 30.2 1023 10 16.0934 0 0
5:54 pm 17:54 Partly Cloudy 40 4.4 21 -6.1 47 47 NW 7 11 30.21 1023 10 16.0934 0 0
6:54 pm 18:54 Clear 37 2.8 21 -6.1 52 52 WNW 5 7 30.22 1023 10 16.0934 0 0
7:54 pm 19:54 Clear 35 1.7 22 -5.6 59 59 NW 7 11 30.22 1023 10 16.0934 0 0
8:54 pm 20:54 Clear 33 0.6 23 -5 66 66 NNW 6 9 30.21 1023 10 16.0934 0 0
9:54 pm 21:54 Cloudy 29 -1.7 21 -6.1 72 72 WSW 3 6 30.21 1023 10 16.0934 0 0
10:54 pm 22:54 Mostly Clear 30 -1.1 22 -5.6 72 72 SW 6 9 30.2 1023 10 16.0934 0 0
11:54 pm 23:54 Clear 29 -1.7 22 -5.6 75 75 SW 7 11 30.18 1022 10 16.0934 0 0

Powered by AerisWeather